Regional Weather Roundup
Issued by NWS

Home | Current Version | Previous Version | Graphics & Text | Print | Product List | Glossary On
Versions: 1 2 3 4 5 6 7 8 9 10 11 12 13 14 15 16 17 18 19 20 21 22 23 24 25 26 27 28 29 30 31 32 33 34 35 36 37 38 39 40 41 42 43 44 45 46 47 48 49 50
000
ASUS45 KSLC 261910
RWRUT

UTAH REGIONAL WEATHER ROUNDUP
NATIONAL WEATHER SERVICE SALT LAKE CITY UT
1200 PM MST SUN FEB 26 2017

UTZ001>011-023>025-262000-

NORTHERN UTAH

CITY           SKY/WX    TMP DP  RH WIND       PRES   REMARKS
BRIGHAM CITY     N/A     31  17  57 NE6       29.91F WCI  25
HILL AFB       SUNNY     30  13  48 S15       29.88F WCI  19
LOGAN          SUNNY     26  15  63 VRB3      29.90F
OGDEN          SUNNY     31  15  52 S12       29.89F WCI  22
SALT LAKE CITY PTSUNNY   34  16  47 S16       29.90F WCI  24
TOOELE VALLEY  SUNNY     36  21  55 S20       29.89F WCI  25
WENDOVER       SUNNY     30  16  55 NE5       29.88F WCI  25
HEBER CITY     MOSUNNY   18   7  62 CALM      29.90F
WEST JORDAN    SUNNY     33  24  70 S20       29.90F WCI  21

$$

UTZ011>015-024>027-262000-

CENTRAL/NORTHEAST UTAH

CITY           SKY/WX    TMP DP  RH WIND       PRES   REMARKS
PROVO AIRPORT  SUNNY     28  16  60 CALM      29.94F
MOAB/CANYONLAN SUNNY     39   7  26 VRB5      29.94F
DELTA          SUNNY     32  19  59 SE3       29.90F
PRICE          SUNNY     29   9  43 S6        29.90F WCI  23
ROOSEVELT      SUNNY     27  10  50 CALM      29.98F
VERNAL         SUNNY     22  11  62 E3        29.95F

$$

UTZ013>016-019>022-027-262000-

SOUTHERN UTAH

CITY           SKY/WX    TMP DP  RH WIND       PRES   REMARKS
BRYCE CANYON   CLOUDY    27  13  55 SE10      29.87F WCI  17
CEDAR CITY     SUNNY     42  15  33 SW16      29.86F
MILFORD        SUNNY     37  26  64 S9        29.88F WCI  30
ST GEORGE      PTCLDY    47  24  40 CALM      29.93F
HANKSVILLE     SUNNY     39  12  33 SE8       29.96F WCI  34
BLANDING       MOSUNNY   37  12  36 CALM      30.00F

$$

REGIONAL REPORTS     COLORADO/ARIZONA

CITY           SKY/WX    TMP DP  RH WIND       PRES   REMARKS
CRAIG, CO      SUNNY     26   5  40 NE3       29.90F
GRAND JUNCTION SUNNY     37   6  27 VRB5      29.95F WCI  33
RIFLE, CO      SUNNY     31   8  38 MISG      29.94F
MONTROSE, CO   SUNNY     36  10  34 VRB5      29.94F WCI  32
CORTEZ, CO     MOSUNNY   37  15  40 VRB3      29.93F
COLORADO CITY    N/A     46  21  36 SE7       29.93F
PAGE, AZ       SUNNY     45  14  28 VRB5      29.92F
GRAND CANYON   CLOUDY    39  21  48 S12       29.91F WCI  32
KINGMAN, AZ    CLOUDY    51  15  23 W15G22    29.92S
FLAGSTAFF, AZ  CLOUDY    35  17  47 VRB7      29.93S WCI  29

$$

REGIONAL REPORTS    NEVADA/IDAHO/WYOMING

CITY           SKY/WX    TMP DP  RH WIND       PRES   REMARKS
LAS VEGAS, NV  MOSUNNY   54  18  24 NE7       29.93R
ELY, NY        SUNNY     29  17  61 S10       29.82F WCI  20
ELKO, NV       MOSUNNY   32  17  54 W6        29.81F WCI  26
POCATELLO, ID  MOSUNNY   29  15  56 S18       29.84F WCI  16
BURLEY, ID     MOSUNNY   35  14  42 S20       29.81F WCI  24
FORT BRIDGER,    N/A     22   9  57 W13       29.84F WCI  10
EVANSTON, WY   CLOUDY    17   8  67 SW10      29.80F WCI   5
ROCK SPRINGS,  SUNNY     20   5  52 SW15      29.83S WCI   6

$$



USA.gov is the U.S. government's official web portal to all federal, state and local government web resources and services.